sat.trackr.live / text

‹ back to catalog

STARLINK-31923

NORAD 60600 · 2024-150T

PAYLOAD ACTIVE UNKNOWN

§ Identity

Operator
Country
US
Launch date
2024-08-20
Launch site
AFETR
Launch vehicle
Mass (kg)
RCS (m²)

Purposes: comms

External: N2YO · Heavens-Above · Gunter

§ Orbital elements

Epoch: 2026-09-21T20:06:04.477248Z

Period
93.85 min
Inclination
53.1596°
Eccentricity
0.0001220
Mean motion
15.34385213 rev/d
Perigee alt
461.9 km
Apogee alt
463.6 km
Semi-major
6,840.9 km
B*
3.0118e-5
RAAN
115.1502°
Arg perigee
99.3628°
Mean anomaly
260.7512°
Rev number
11,808

§ Raw data

STARLINK-319231 60600U 24150T   26264.83755182  .00000641  00000+0  30118-4 0  99902 60600  53.1596 115.1502 0001220  99.3628 260.7512 15.34385213118086

JSON: /api/v1/satellites/60600 · /tle

For live sub-satellite position, see the globe view (requires WebGL).

§ Visibility from observer

Set your observer location to see the next 7 days of passes ≥ 10°. The values pass through the URL so the page stays shareable.

No JS? Fill the form by hand. The geolocation button needs JavaScript.